COSMOS 249 DEB, 3584

Orbit data source: Space-Track

COSMOS 249 DEB, 3584 is space debris in LEO originally from a launch on Sun, 20 Oct 1968 UTC launched from the Tyuratam Missile And Space Complex (TTMTR). Debris objects in space refer to the collection of defunct objects orbiting the Earth. Examples of debris include non-operational satellites, rocket bodies, and fragments generated from explosions, collisions, or faulty payload assembly.

Loading next visibility...
Identifier
3584, 1968-091S
Orbit
LEO
Country
Flag of CISCIS
Related business
Manufacturer
Unknown
Mission
Spacecraft
Bus & Motor
Unknown
Mass
Unknown
Launch date (UTC)
1968-10-20 (57 years ago)
Launch vehicle
Unknown
Launch site
Tyuratam Missile And Space Complex (TTMTR)
Object type
Payload
Rocket body
Debris
Shape & HBR
Unknown shape, 0.1 m
Radar Cross Section
Small (<0.1 m²)

Expand to show TLE details & history
Last TLE update: 13 hours ago

TLE from 13 hours ago
0 COSMOS 249 DEB
1 03584U 68091S   25340.91745416  .00014830  00000-0  15947-2 0  9999
2 03584  62.2929 238.0944 0307570 163.1000 198.0603 14.59846082834778
Epoch: 2025-12-06T22:01Z
TLE epoch observation values (Epoch: 2025-12-06T22:01:08.039Z)
Latitude
-0.00004°
Longitude
-168.12743°
Altitude
902.863 km
Speed
7.292 km/s
True Right ascension
15h 52m 22s
True Declination
0° 00' 00"
Sunlit
Object was in daylight at epoch
Visualization orbit readout
Latitude
Unknown
Longitude
Unknown
Altitude
Unknown
Speed
Unknown
Apparent Right ascension
Unknown
Apparent Declination
Unknown
Sunlit
N/A
Visualization observer readout
Local Sidereal Time
09:10:48
Azimuth
Unknown
Elevation
Unknown
Doppler factor
Unknown
Orbital elements
Apogee altitude
910.054 km
Perigee altitude
475.105 km
Semi-major axis
7,070.717 km
Eccentricity
0.03076
Inclination
62.2929°
RAAN
238.0944°
Arg. of periapsis
163.1°
True anomaly
197.00629°
Mean anomaly
198.0603°
Eccentric anomaly
197.52952°
Mean motion
3.65046 °/min
Orbital period
98.62 mins
BSTAR
0.0015947
Loading maneuver chart data...
Computing Atmospheric mass density...

Documentation

Showing up to 5 results
|